Starlink 11439

operational
NORAD ID: 62419 Int'l Des: 2024-249 Owner: SPXS Country: US Constellation: starlink
LEOCIRCULAR

About Starlink 11439

Description loading...

Live Position

Loading 3D Globe...

Upcoming Passes

Altitude History

Altitude vs Time

uPlot chart will show altitude changes over time

Two-Line Element Set

1 62419U 24249L 25257.05994222 .00177899 00000-0 13564-2 0 9999
2 62419 43.0037 152.1144 0002875 256.1425 103.9123 15.70909192 41700
Epoch: Sep 14, 2025 • Age: 39 hours

Current Status

Altitude 354.1 km
Velocity 7.70 km/s
Sub-Earth Point 5.71°N, 76.74°E
Launch Date Dec 23, 2024
Age 0.7 years
Type internet

Technical Details

Classification Payload
Mass 960.00 kg
Dry Mass 910.00 kg
Total Mass 960.00 kg
Length 0.30 m
Diameter 4.10 m
Span 29.00 m
Shape Box + pan
Manufacturer SPXS
Bus Type Starlink V2MD
Phase Status In Orbit
Owner/State SPXS/US

Large Constellations

Loading constellations...